Location: Lewisville
(33.0462°N, 96.9942°W)
Time: 12:08:28
(UTC-06:00)

N. Korean satellite - Pass Details

Date: 30 November 2019
Orbit: 454 x 507 km, 97.2° (Epoch: 23 January)

Event Time Altitude Azimuth Distance (km) Brightness Sun altitude
Rises 06:28:13 0° 5° (N) 2,573 10.1 -9.3°
Reaches altitude 10° 06:30:20 10° 1° (N) 1,678 9.1 -8.9°
Maximum altitude 06:33:52 54° 284° (WNW) 589 6.6 -8.2°
Drops below altitude 10° 06:37:18 10° 206° (SSW) 1,636 9.2 -7.5°
Sets 06:39:21 0° 202° (SSW) 2,500 10.2 -7.1°
